Weather in Milatos

Greece     35°18′28″N   25°34′00″E
temp.,
°C
wind,
m/s
gust,
m/s
humid.,
%
clouds,
%
prec.,
mm/h
press.,
hPa
HPBL,
m
7 may, fri
fri700:00+18nw224483 0.0 101612
03:00+18nnw224382 0.0 101511
06:00+17ne114237 0.0 101411
09:00+22ene112962 0.0 1015210
12:00+25nne123070 0.0 1016594
15:00+28ese1329100 0.0 1013660
18:00+26se133499 0.0 1013397
21:00+21se114575 0.0 101311
8 may, sat
sat800:00+23s333323 0.0 101213
03:00+23s4327100 0.0 101028
06:00+22sse3332100 0.0 101022
09:00+25se223099 0.0 1011214
12:00+24wsw2541100 0.0 1009187
15:00+26nw133930 0.0 1009549
18:00+23nnw345019 0.0 1009331
21:00+17wnw46766 0.0 1011163
9 may, sun
sun900:00+15wnw579043 0.0 1013266
03:00+15nw459355 0.0 1014263
06:00+14nw359440 0.0 1015160
09:00+16nw668444 0.0 1016422
12:00+18nw777446 0.0 1017573
15:00+17nw777239 0.1 1018658
18:00+15nw777515 0.0 1018574
21:00+13wnw788924 0.0 1018468
10 may, mon
mon1000:00+12nw688632 0.0 1019466
03:00+11wnw798414 0.0 1018457
06:00+11wnw788437 0.0 1018510
09:00+13nw677213 0.0 1018559
12:00+16nw56600 0.0 1018619
15:00+16nw66590 0.0 1017634
18:00+14nnw56620 0.0 1017530
21:00+12wnw56750 0.0 1017379
11 may, tue
tue1100:00+12wnw67760 0.0 1017344
03:00+11wnw688210 0.0 1016356
06:00+11wnw68839 0.0 1016392
09:00+14nw77694 0.0 1016520
12:00+16nw66580 0.0 1016570
15:00+16nw66600 0.0 1015596
18:00+15nw55660 0.0 1015484
21:00+12wnw45745 0.0 1015218